Mto Colmar Ouest (68)
Donnes mto: Actuelle jeudi, 23/09/2021 23:30
Date Horaire Temp. I. Temp. s/Abri Hum. I. Hum. E. P.atmo. Pluie Vent Direction Direction P. de rose Temp au vent Rafales
23/09/2021 23:30 19,2 C 13,5 C 59 % 55 % 1017,8 hPa 0,0 mm 0,2 km/h (0 Bft) SE 135 4,6 C 13,5 C 0,0 km/h (0 Bft)
23/09/2021 23:25 19,2 C 13,7 C 59 % 54 % 1017,8 hPa 0,0 mm 0,0 km/h (0 Bft) SE 135 4,6 C 13,7 C 0,0 km/h (0 Bft)
23/09/2021 23:20 19,2 C 13,8 C 59 % 54 % 1017,8 hPa 0,0 mm 0,0 km/h (0 Bft) S-SE 157 4,7 C 13,8 C 0,0 km/h (0 Bft)
23/09/2021 23:15 19,2 C 14,0 C 59 % 54 % 1017,8 hPa 0,0 mm 0,0 km/h (0 Bft) E-SE 112 4,8 C 14,0 C 0,0 km/h (0 Bft)
23/09/2021 23:10 19,2 C 14,2 C 59 % 54 % 1017,8 hPa 0,0 mm 0,0 km/h (0 Bft) E-SE 112 5,0 C 14,2 C 1,6 km/h (1 Bft)
23/09/2021 23:05 19,2 C 14,3 C 59 % 54 % 1017,8 hPa 0,0 mm 0,5 km/h (0 Bft) E-SE 112 5,1 C 14,3 C 0,0 km/h (0 Bft)
23/09/2021 23:00 19,2 C 14,5 C 59 % 54 % 1017,8 hPa 0,0 mm 0,6 km/h (0 Bft) SE 135 5,3 C 14,5 C 0,0 km/h (0 Bft)
23/09/2021 22:55 19,2 C 14,6 C 59 % 53 % 1017,8 hPa 0,0 mm 1,6 km/h (1 Bft) N 360 5,1 C 14,6 C 3,4 km/h (1 Bft)
23/09/2021 22:50 19,2 C 14,7 C 59 % 54 % 1018,0 hPa 0,0 mm 1,9 km/h (1 Bft) S 180 5,5 C 14,7 C 0,0 km/h (0 Bft)
23/09/2021 22:45 19,2 C 14,8 C 59 % 54 % 1018,0 hPa 0,0 mm 1,9 km/h (1 Bft) S 180 5,6 C 14,8 C 0,0 km/h (0 Bft)
23/09/2021 22:40 19,2 C 14,8 C 59 % 54 % 1018,0 hPa 0,0 mm 3,2 km/h (1 Bft) S-SE 157 5,6 C 14,8 C 3,2 km/h (1 Bft)
23/09/2021 22:35 19,2 C 14,9 C 59 % 54 % 1018,0 hPa 0,0 mm 2,6 km/h (1 Bft) S 180 5,7 C 14,9 C 3,5 km/h (1 Bft)
23/09/2021 22:30 19,2 C 15,0 C 59 % 55 % 1017,5 hPa 0,0 mm 1,3 km/h (1 Bft) E-SE 112 6,0 C 15,0 C 5,0 km/h (1 Bft)
23/09/2021 22:25 19,2 C 15,0 C 59 % 55 % 1017,5 hPa 0,0 mm 0,8 km/h (0 Bft) E-SE 112 6,0 C 15,0 C 0,0 km/h (0 Bft)
23/09/2021 22:20 19,2 C 15,1 C 59 % 55 % 1017,5 hPa 0,0 mm 1,4 km/h (1 Bft) N 360 6,1 C 15,1 C 0,0 km/h (0 Bft)
23/09/2021 22:15 19,2 C 15,2 C 59 % 56 % 1017,5 hPa 0,0 mm 2,6 km/h (1 Bft) S 180 6,5 C 15,2 C 2,9 km/h (1 Bft)
23/09/2021 22:10 19,3 C 15,3 C 59 % 56 % 1017,6 hPa 0,0 mm 3,4 km/h (1 Bft) S-SE 157 6,6 C 15,3 C 4,0 km/h (1 Bft)
23/09/2021 22:05 19,2 C 15,4 C 59 % 57 % 1017,6 hPa 0,0 mm 2,4 km/h (1 Bft) S 180 6,9 C 15,4 C 5,6 km/h (1 Bft)
23/09/2021 22:00 19,2 C 15,5 C 60 % 58 % 1017,6 hPa 0,0 mm 1,8 km/h (1 Bft) S 180 7,3 C 15,5 C 3,7 km/h (1 Bft)
23/09/2021 21:55 19,4 C 15,6 C 60 % 59 % 1017,6 hPa 0,0 mm 0,8 km/h (0 Bft) S 180 7,6 C 15,6 C 0,0 km/h (0 Bft)
23/09/2021 21:50 19,4 C 15,7 C 60 % 58 % 1017,1 hPa 0,0 mm 0,8 km/h (0 Bft) S 180 7,5 C 15,7 C 3,5 km/h (1 Bft)
23/09/2021 21:45 19,4 C 15,9 C 60 % 57 % 1017,1 hPa 0,0 mm 0,8 km/h (0 Bft) N 360 7,4 C 15,9 C 0,0 km/h (0 Bft)
23/09/2021 21:40 19,4 C 16,0 C 60 % 57 % 1017,1 hPa 0,0 mm 0,5 km/h (0 Bft) N 360 7,5 C 16,0 C 1,8 km/h (1 Bft)
23/09/2021 21:35 19,4 C 16,2 C 60 % 56 % 1017,1 hPa 0,0 mm 0,0 km/h (0 Bft) NO 315 7,4 C 16,2 C 0,0 km/h (0 Bft)
23/09/2021 21:30 19,4 C 16,2 C 60 % 56 % 1017,4 hPa 0,0 mm 0,2 km/h (0 Bft) S 180 7,4 C 16,2 C 0,0 km/h (0 Bft)
23/09/2021 21:25 19,4 C 16,4 C 60 % 56 % 1017,4 hPa 0,0 mm 1,1 km/h (1 Bft) S 180 7,6 C 16,4 C 0,0 km/h (0 Bft)
23/09/2021 21:20 19,5 C 16,5 C 60 % 56 % 1017,4 hPa 0,0 mm 2,6 km/h (1 Bft) SE 135 7,7 C 16,5 C 0,0 km/h (0 Bft)
23/09/2021 21:15 19,5 C 16,6 C 60 % 57 % 1017,4 hPa 0,0 mm 2,6 km/h (1 Bft) S-SE 157 8,0 C 16,6 C 5,5 km/h (1 Bft)
23/09/2021 21:10 19,5 C 16,7 C 60 % 57 % 1017,2 hPa 0,0 mm 1,6 km/h (1 Bft) S 180 8,1 C 16,7 C 5,5 km/h (1 Bft)
23/09/2021 21:05 19,6 C 16,9 C 60 % 57 % 1017,2 hPa 0,0 mm 0,5 km/h (0 Bft) S-SE 157 8,3 C 16,9 C 2,9 km/h (1 Bft)
23/09/2021 21:00 19,6 C 17,1 C 60 % 57 % 1017,2 hPa 0,0 mm 0,0 km/h (0 Bft) S 180 8,5 C 17,1 C 0,0 km/h (0 Bft)
23/09/2021 20:55 19,6 C 17,3 C 60 % 56 % 1017,2 hPa 0,0 mm 0,5 km/h (0 Bft) S-SE 157 8,4 C 17,3 C 0,0 km/h (0 Bft)
23/09/2021 20:50 19,6 C 17,3 C 60 % 56 % 1017,6 hPa 0,0 mm 0,8 km/h (0 Bft) SE 135 8,4 C 17,3 C 0,0 km/h (0 Bft)
23/09/2021 20:45 19,6 C 17,6 C 60 % 56 % 1017,6 hPa 0,0 mm 0,8 km/h (0 Bft) E-SE 112 8,7 C 17,6 C 2,3 km/h (1 Bft)
23/09/2021 20:40 19,6 C 17,7 C 60 % 56 % 1017,6 hPa 0,0 mm 0,6 km/h (0 Bft) S-SE 157 8,8 C 17,7 C 0,0 km/h (0 Bft)
23/09/2021 20:35 19,6 C 17,9 C 60 % 56 % 1017,6 hPa 0,0 mm 1,8 km/h (1 Bft) S 180 9,0 C 17,9 C 0,0 km/h (0 Bft)
23/09/2021 20:30 19,7 C 18,1 C 60 % 55 % 1017,2 hPa 0,0 mm 2,4 km/h (1 Bft) S 180 8,9 C 18,1 C 1,8 km/h (1 Bft)
23/09/2021 20:25 19,7 C 18,3 C 60 % 55 % 1017,2 hPa 0,0 mm 2,7 km/h (1 Bft) S 180 9,1 C 18,3 C 4,7 km/h (1 Bft)
23/09/2021 20:20 19,7 C 18,5 C 60 % 55 % 1017,2 hPa 0,0 mm 3,1 km/h (1 Bft) S-SE 157 9,3 C 18,5 C 2,6 km/h (1 Bft)
23/09/2021 20:15 19,7 C 18,8 C 60 % 54 % 1017,2 hPa 0,0 mm 3,2 km/h (1 Bft) SE 135 9,3 C 18,8 C 5,3 km/h (1 Bft)
23/09/2021 20:10 19,7 C 19,0 C 60 % 53 % 1017,3 hPa 0,0 mm 2,1 km/h (1 Bft) S 180 9,2 C 19,0 C 3,7 km/h (1 Bft)
23/09/2021 20:05 19,7 C 19,5 C 60 % 53 % 1017,3 hPa 0,0 mm 0,8 km/h (0 Bft) S 180 9,7 C 19,5 C 0,0 km/h (0 Bft)
23/09/2021 20:00 19,7 C 19,6 C 60 % 53 % 1017,3 hPa 0,0 mm 1,0 km/h (0 Bft) S-SE 157 9,8 C 19,6 C 1,8 km/h (1 Bft)
23/09/2021 19:55 19,7 C 19,9 C 60 % 52 % 1017,3 hPa 0,0 mm 0,2 km/h (0 Bft) E-SE 112 9,7 C 19,9 C 0,0 km/h (0 Bft)
23/09/2021 19:50 19,7 C 20,0 C 60 % 52 % 1017,1 hPa 0,0 mm 0,0 km/h (0 Bft) N 360 9,8 C 20,0 C 1,6 km/h (1 Bft)
23/09/2021 19:45 19,7 C 20,3 C 60 % 51 % 1017,1 hPa 0,0 mm 0,0 km/h (0 Bft) S-SE 157 9,8 C 20,3 C 0,0 km/h (0 Bft)
23/09/2021 19:40 19,7 C 20,4 C 59 % 51 % 1017,1 hPa 0,0 mm 0,0 km/h (0 Bft) S-SE 157 9,9 C 20,4 C 0,0 km/h (0 Bft)
23/09/2021 19:35 19,8 C 20,8 C 59 % 50 % 1017,1 hPa 0,0 mm 0,0 km/h (0 Bft) S-SE 157 10,0 C 20,8 C 0,0 km/h (0 Bft)
23/09/2021 19:30 19,8 C 21,0 C 59 % 50 % 1017,1 hPa 0,0 mm 0,0 km/h (0 Bft) S 180 10,2 C 21,0 C 0,0 km/h (0 Bft)
23/09/2021 19:25 19,8 C 21,2 C 59 % 50 % 1017,1 hPa 0,0 mm 0,0 km/h (0 Bft) N 360 10,4 C 21,2 C 0,0 km/h (0 Bft)
23/09/2021 19:20 19,8 C 21,4 C 59 % 50 % 1017,1 hPa 0,0 mm 0,3 km/h (0 Bft) N-NO 337 10,5 C 21,4 C 0,0 km/h (0 Bft)
23/09/2021 19:15 19,8 C 21,6 C 59 % 49 % 1017,1 hPa 0,0 mm 0,5 km/h (0 Bft) E-SE 112 10,4 C 21,6 C 2,3 km/h (1 Bft)
23/09/2021 19:10 19,8 C 21,8 C 59 % 49 % 1017,0 hPa 0,0 mm 0,0 km/h (0 Bft) E-SE 112 10,6 C 21,8 C 0,0 km/h (0 Bft)
23/09/2021 19:05 19,8 C 22,0 C 59 % 49 % 1017,0 hPa 0,0 mm 0,8 km/h (0 Bft) E-SE 112 10,8 C 22,0 C 0,0 km/h (0 Bft)
23/09/2021 19:00 19,8 C 22,1 C 59 % 48 % 1017,0 hPa 0,0 mm 1,4 km/h (1 Bft) E-SE 112 10,6 C 22,1 C 0,0 km/h (0 Bft)
23/09/2021 18:55 19,8 C 22,2 C 59 % 48 % 1017,0 hPa 0,0 mm 2,6 km/h (1 Bft) N 360 10,7 C 22,2 C 1,6 km/h (1 Bft)
23/09/2021 18:50 19,8 C 22,3 C 58 % 48 % 1017,1 hPa 0,0 mm 2,9 km/h (1 Bft) N 360 10,8 C 22,3 C 2,7 km/h (1 Bft)
23/09/2021 18:45 19,8 C 22,4 C 59 % 48 % 1017,1 hPa 0,0 mm 2,6 km/h (1 Bft) N 360 10,8 C 22,4 C 4,8 km/h (1 Bft)
23/09/2021 18:40 19,8 C 22,4 C 59 % 48 % 1017,1 hPa 0,0 mm 2,4 km/h (1 Bft) N 360 10,8 C 22,4 C 4,2 km/h (1 Bft)
23/09/2021 18:35 19,8 C 22,5 C 59 % 48 % 1017,1 hPa 0,0 mm 2,6 km/h (1 Bft) N 360 10,9 C 22,5 C 3,1 km/h (1 Bft)
23/09/2021 18:30 19,8 C 22,6 C 59 % 48 % 1017,1 hPa 0,0 mm 2,6 km/h (1 Bft) SE 135 11,0 C 22,6 C 1,8 km/h (1 Bft)
23/09/2021 18:25 19,8 C 22,6 C 59 % 47 % 1017,1 hPa 0,0 mm 2,4 km/h (1 Bft) N-NO 337 10,7 C 22,6 C 3,9 km/h (1 Bft)
23/09/2021 18:20 19,8 C 22,7 C 59 % 47 % 1017,1 hPa 0,0 mm 2,9 km/h (1 Bft) N 360 10,8 C 22,7 C 2,7 km/h (1 Bft)
23/09/2021 18:15 19,8 C 22,7 C 59 % 47 % 1017,1 hPa 0,0 mm 3,5 km/h (1 Bft) N 360 10,8 C 22,7 C 0,0 km/h (0 Bft)
23/09/2021 18:10 19,8 C 22,8 C 59 % 46 % 1016,9 hPa 0,0 mm 3,2 km/h (1 Bft) N-NO 337 10,6 C 22,8 C 5,0 km/h (1 Bft)
23/09/2021 18:05 19,8 C 22,8 C 59 % 47 % 1016,9 hPa 0,0 mm 2,4 km/h (1 Bft) N-NO 337 10,9 C 22,8 C 4,0 km/h (1 Bft)
23/09/2021 18:00 19,8 C 22,9 C 59 % 47 % 1016,9 hPa 0,0 mm 2,9 km/h (1 Bft) SE 135 11,0 C 22,9 C 2,1 km/h (1 Bft)
23/09/2021 17:55 19,7 C 22,9 C 59 % 47 % 1016,9 hPa 0,0 mm 3,4 km/h (1 Bft) E-SE 112 11,0 C 22,9 C 5,1 km/h (1 Bft)
23/09/2021 17:50 19,7 C 22,9 C 59 % 47 % 1016,9 hPa 0,0 mm 3,4 km/h (1 Bft) SE 135 11,0 C 22,9 C 5,0 km/h (1 Bft)
23/09/2021 17:45 19,7 C 23,0 C 59 % 46 % 1016,9 hPa 0,0 mm 4,2 km/h (1 Bft) NO 315 10,7 C 23,0 C 0,0 km/h (0 Bft)
23/09/2021 17:40 19,6 C 23,0 C 59 % 46 % 1016,9 hPa 0,0 mm 4,0 km/h (1 Bft) N-NO 337 10,7 C 23,0 C 3,9 km/h (1 Bft)
23/09/2021 17:35 19,6 C 23,1 C 59 % 46 % 1016,9 hPa 0,0 mm 4,2 km/h (1 Bft) N 360 10,8 C 23,1 C 0,0 km/h (0 Bft)
23/09/2021 17:30 19,6 C 23,2 C 59 % 46 % 1017,0 hPa 0,0 mm 4,7 km/h (1 Bft) N-NO 337 10,9 C 23,2 C 5,3 km/h (1 Bft)
23/09/2021 17:25 19,6 C 23,3 C 59 % 46 % 1017,0 hPa 0,0 mm 4,5 km/h (1 Bft) N-NO 337 11,0 C 23,3 C 7,2 km/h (2 Bft)
23/09/2021 17:20 19,6 C 23,4 C 59 % 45 % 1017,0 hPa 0,0 mm 4,7 km/h (1 Bft) N-NO 337 10,8 C 23,4 C 6,4 km/h (2 Bft)
23/09/2021 17:15 19,5 C 23,5 C 59 % 45 % 1017,0 hPa 0,0 mm 5,1 km/h (1 Bft) N 360 10,9 C 23,5 C 8,5 km/h (2 Bft)
23/09/2021 17:10 19,5 C 23,6 C 59 % 45 % 1017,1 hPa 0,0 mm 4,7 km/h (1 Bft) N-NO 337 11,0 C 23,6 C 6,1 km/h (2 Bft)
23/09/2021 17:05 19,5 C 23,8 C 59 % 45 % 1017,1 hPa 0,0 mm 4,2 km/h (1 Bft) N 360 11,1 C 23,8 C 5,6 km/h (1 Bft)
23/09/2021 17:00 19,5 C 23,8 C 59 % 45 % 1017,1 hPa 0,0 mm 4,2 km/h (1 Bft) N-NO 337 11,1 C 23,8 C 2,3 km/h (1 Bft)
23/09/2021 16:55 19,5 C 24,0 C 59 % 45 % 1017,1 hPa 0,0 mm 4,7 km/h (1 Bft) SE 135 11,3 C 24,0 C 3,7 km/h (1 Bft)
23/09/2021 16:50 19,4 C 24,1 C 59 % 45 % 1017,1 hPa 0,0 mm 5,0 km/h (1 Bft) N 360 11,4 C 24,1 C 4,5 km/h (1 Bft)
23/09/2021 16:45 19,4 C 24,0 C 59 % 45 % 1017,1 hPa 0,0 mm 5,1 km/h (1 Bft) N 360 11,3 C 24,0 C 6,9 km/h (2 Bft)
23/09/2021 16:40 19,2 C 24,0 C 58 % 45 % 1017,1 hPa 0,0 mm 5,1 km/h (1 Bft) N 360 11,3 C 24,0 C 4,5 km/h (1 Bft)
23/09/2021 16:35 19,2 C 23,8 C 58 % 45 % 1017,1 hPa 0,0 mm 6,0 km/h (2 Bft) N-NO 337 11,1 C 23,8 C 8,0 km/h (2 Bft)
23/09/2021 16:30 19,3 C 23,7 C 58 % 45 % 1017,4 hPa 0,0 mm 6,1 km/h (2 Bft) N 360 11,1 C 23,7 C 9,2 km/h (2 Bft)
23/09/2021 16:25 19,2 C 23,9 C 58 % 45 % 1017,4 hPa 0,0 mm 5,8 km/h (2 Bft) N-NO 337 11,2 C 23,9 C 9,2 km/h (2 Bft)
23/09/2021 16:20 19,2 C 23,9 C 57 % 45 % 1017,4 hPa 0,0 mm 5,8 km/h (2 Bft) N-NO 337 11,2 C 23,9 C 8,9 km/h (2 Bft)
23/09/2021 16:15 19,2 C 23,7 C 57 % 45 % 1017,4 hPa 0,0 mm 5,6 km/h (1 Bft) N 360 11,1 C 23,7 C 13,0 km/h (3 Bft)
23/09/2021 16:10 19,2 C 23,6 C 57 % 44 % 1017,4 hPa 0,0 mm 4,7 km/h (1 Bft) NO 315 10,6 C 23,6 C 6,6 km/h (2 Bft)
23/09/2021 16:05 19,2 C 23,5 C 57 % 44 % 1017,4 hPa 0,0 mm 6,0 km/h (2 Bft) N 360 10,5 C 23,5 C 7,1 km/h (2 Bft)
23/09/2021 16:00 19,2 C 23,4 C 57 % 43 % 1017,4 hPa 0,0 mm 6,8 km/h (2 Bft) N 360 10,1 C 23,4 C 8,0 km/h (2 Bft)
23/09/2021 15:55 19,2 C 23,4 C 57 % 44 % 1017,4 hPa 0,0 mm 6,1 km/h (2 Bft) E-NE 67 10,4 C 23,4 C 7,7 km/h (2 Bft)
23/09/2021 15:50 19,2 C 23,3 C 57 % 44 % 1017,6 hPa 0,0 mm 6,8 km/h (2 Bft) SE 135 10,4 C 23,3 C 5,8 km/h (2 Bft)
23/09/2021 15:45 19,1 C 23,3 C 57 % 44 % 1017,6 hPa 0,0 mm 6,8 km/h (2 Bft) N-NO 337 10,4 C 23,3 C 5,5 km/h (1 Bft)
23/09/2021 15:40 19,2 C 23,2 C 57 % 45 % 1017,6 hPa 0,0 mm 6,1 km/h (2 Bft) N 360 10,6 C 23,2 C 11,3 km/h (2 Bft)
23/09/2021 15:35 19,1 C 23,1 C 57 % 45 % 1017,6 hPa 0,0 mm 6,0 km/h (2 Bft) N 360 10,5 C 23,1 C 9,0 km/h (2 Bft)
23/09/2021 15:30 19,2 C 23,0 C 57 % 45 % 1017,5 hPa 0,0 mm 6,8 km/h (2 Bft) N 360 10,4 C 23,0 C 6,3 km/h (2 Bft)
23/09/2021 15:25 19,1 C 23,0 C 57 % 45 % 1017,5 hPa 0,0 mm 6,8 km/h (2 Bft) N-NO 337 10,4 C 23,0 C 9,3 km/h (2 Bft)
23/09/2021 15:20 19,1 C 23,1 C 57 % 46 % 1017,5 hPa 0,0 mm 6,6 km/h (2 Bft) N 360 10,8 C 23,1 C 10,0 km/h (2 Bft)
23/09/2021 15:15 19,1 C 22,8 C 57 % 46 % 1017,5 hPa 0,0 mm 6,6 km/h (2 Bft) N-NO 337 10,6 C 22,8 C 10,9 km/h (2 Bft)
23/09/2021 15:10 19,1 C 22,8 C 57 % 46 % 1017,7 hPa 0,0 mm 7,4 km/h (2 Bft) E-NE 67 10,6 C 22,8 C 8,4 km/h (2 Bft)
23/09/2021 15:05 19,1 C 22,7 C 57 % 46 % 1017,7 hPa 0,0 mm 6,9 km/h (2 Bft) N 360 10,5 C 22,7 C 6,1 km/h (2 Bft)
23/09/2021 15:00 19,1 C 22,7 C 57 % 46 % 1017,7 hPa 0,0 mm 6,6 km/h (2 Bft) SE 135 10,5 C 22,7 C 12,7 km/h (3 Bft)
23/09/2021 14:55 19,1 C 22,6 C 57 % 46 % 1017,7 hPa 0,0 mm 6,9 km/h (2 Bft) O-NO 292 10,4 C 22,6 C 5,0 km/h (1 Bft)
23/09/2021 14:50 19,1 C 22,6 C 57 % 46 % 1018,4 hPa 0,0 mm 7,6 km/h (2 Bft) N 360 10,4 C 22,6 C 9,0 km/h (2 Bft)
23/09/2021 14:45 19,1 C 22,4 C 57 % 47 % 1018,4 hPa 0,0 mm 7,2 km/h (2 Bft) N 360 10,5 C 22,4 C 8,9 km/h (2 Bft)
23/09/2021 14:40 19,1 C 22,4 C 57 % 46 % 1018,4 hPa 0,0 mm 6,1 km/h (2 Bft) N 360 10,2 C 22,4 C 8,9 km/h (2 Bft)
23/09/2021 14:35 19,1 C 22,1 C 57 % 47 % 1018,4 hPa 0,0 mm 5,8 km/h (2 Bft) E-SE 112 10,3 C 22,1 C 7,4 km/h (2 Bft)
23/09/2021 14:30 19,1 C 21,9 C 57 % 46 % 1018,6 hPa 0,0 mm 6,6 km/h (2 Bft) N 360 9,7 C 21,9 C 7,7 km/h (2 Bft)
23/09/2021 14:25 19,1 C 21,9 C 57 % 47 % 1018,6 hPa 0,0 mm 6,8 km/h (2 Bft) N-NO 337 10,1 C 21,9 C 4,8 km/h (1 Bft)
23/09/2021 14:20 19,1 C 21,7 C 57 % 47 % 1018,6 hPa 0,0 mm 6,6 km/h (2 Bft) N 360 9,9 C 21,7 C 5,6 km/h (1 Bft)
23/09/2021 14:15 19,1 C 21,5 C 57 % 48 % 1018,6 hPa 0,0 mm 6,4 km/h (2 Bft) N-NO 337 10,0 C 21,5 C 4,7 km/h (1 Bft)
23/09/2021 14:10 19,1 C 21,6 C 57 % 48 % 1018,8 hPa 0,0 mm 6,9 km/h (2 Bft) N-NO 337 10,1 C 21,6 C 6,8 km/h (2 Bft)
23/09/2021 14:05 19,1 C 21,6 C 57 % 48 % 1018,8 hPa 0,0 mm 6,9 km/h (2 Bft) N 360 10,1 C 21,6 C 8,4 km/h (2 Bft)
23/09/2021 14:00 19,1 C 21,5 C 57 % 48 % 1018,8 hPa 0,0 mm 6,8 km/h (2 Bft) N-NO 337 10,0 C 21,5 C 8,2 km/h (2 Bft)
23/09/2021 13:55 19,1 C 21,4 C 57 % 48 % 1018,8 hPa 0,0 mm 6,6 km/h (2 Bft) NO 315 9,9 C 21,4 C 8,4 km/h (2 Bft)
23/09/2021 13:50 19,1 C 21,4 C 57 % 48 % 1018,8 hPa 0,0 mm 6,6 km/h (2 Bft) N 360 9,9 C 21,4 C 6,9 km/h (2 Bft)
23/09/2021 13:45 19,1 C 21,1 C 57 % 49 % 1018,8 hPa 0,0 mm 6,8 km/h (2 Bft) N-NO 337 10,0 C 21,1 C 18,3 km/h (3 Bft)
23/09/2021 13:40 19,1 C 20,9 C 57 % 48 % 1018,8 hPa 0,0 mm 7,9 km/h (2 Bft) N-NO 337 9,5 C 20,9 C 12,7 km/h (3 Bft)
23/09/2021 13:35 19,1 C 20,9 C 57 % 48 % 1018,8 hPa 0,0 mm 8,5 km/h (2 Bft) SE 135 9,5 C 20,9 C 5,8 km/h (2 Bft)
23/09/2021 13:30 19,1 C 20,9 C 56 % 49 % 1018,8 hPa 0,0 mm 8,5 km/h (2 Bft) N 360 9,8 C 20,9 C 11,6 km/h (2 Bft)
23/09/2021 13:25 19,1 C 20,9 C 56 % 48 % 1018,8 hPa 0,0 mm 8,5 km/h (2 Bft) N 360 9,5 C 20,9 C 12,2 km/h (2 Bft)
23/09/2021 13:20 19,1 C 20,6 C 56 % 48 % 1018,8 hPa 0,0 mm 7,7 km/h (2 Bft) N-NO 337 9,2 C 20,6 C 14,3 km/h (3 Bft)
23/09/2021 13:15 19,1 C 20,5 C 56 % 48 % 1018,8 hPa 0,0 mm 7,7 km/h (2 Bft) O-NO 292 9,1 C 20,5 C 7,7 km/h (2 Bft)
23/09/2021 13:10 19,1 C 20,6 C 57 % 48 % 1019,0 hPa 0,0 mm 7,7 km/h (2 Bft) N-NO 337 9,2 C 20,6 C 9,8 km/h (2 Bft)
23/09/2021 13:05 19,1 C 20,6 C 56 % 48 % 1019,0 hPa 0,0 mm 6,4 km/h (2 Bft) N 360 9,2 C 20,6 C 10,3 km/h (2 Bft)
23/09/2021 13:00 19,1 C 20,6 C 56 % 48 % 1019,0 hPa 0,0 mm 6,9 km/h (2 Bft) N 360 9,2 C 20,6 C 11,4 km/h (2 Bft)
23/09/2021 12:55 19,1 C 20,3 C 57 % 49 % 1019,0 hPa 0,0 mm 8,4 km/h (2 Bft) S-SE 157 9,2 C 20,3 C 2,4 km/h (1 Bft)
23/09/2021 12:50 19,1 C 20,3 C 57 % 49 % 1019,0 hPa 0,0 mm 7,7 km/h (2 Bft) N 360 9,2 C 20,3 C 10,9 km/h (2 Bft)
23/09/2021 12:45 19,1 C 20,2 C 56 % 49 % 1019,0 hPa 0,0 mm 7,1 km/h (2 Bft) N 360 9,1 C 20,2 C 13,0 km/h (3 Bft)
23/09/2021 12:40 19,1 C 20,0 C 56 % 49 % 1019,0 hPa 0,0 mm 6,6 km/h (2 Bft) N 360 9,0 C 20,0 C 4,7 km/h (1 Bft)
23/09/2021 12:35 19,1 C 19,9 C 56 % 49 % 1019,0 hPa 0,0 mm 6,4 km/h (2 Bft) N 360 8,9 C 19,9 C 17,5 km/h (3 Bft)
23/09/2021 12:30 19,1 C 19,8 C 56 % 50 % 1019,1 hPa 0,0 mm 6,9 km/h (2 Bft) NO 315 9,1 C 19,8 C 6,1 km/h (2 Bft)
23/09/2021 12:25 19,1 C 19,7 C 56 % 50 % 1019,1 hPa 0,0 mm 7,1 km/h (2 Bft) N 360 9,0 C 19,7 C 8,5 km/h (2 Bft)
23/09/2021 12:20 19,0 C 19,5 C 56 % 50 % 1019,1 hPa 0,0 mm 6,8 km/h (2 Bft) N 360 8,8 C 19,5 C 6,6 km/h (2 Bft)
23/09/2021 12:15 19,1 C 19,2 C 56 % 50 % 1019,1 hPa 0,0 mm 7,1 km/h (2 Bft) SE 135 8,5 C 19,2 C 9,2 km/h (2 Bft)
23/09/2021 12:10 19,0 C 19,1 C 56 % 50 % 1019,5 hPa 0,0 mm 6,4 km/h (2 Bft) N 360 8,4 C 19,1 C 8,2 km/h (2 Bft)
23/09/2021 12:05 19,0 C 19,0 C 56 % 51 % 1019,5 hPa 0,0 mm 6,1 km/h (2 Bft) N 360 8,6 C 19,0 C 6,8 km/h (2 Bft)
23/09/2021 12:00 19,0 C 19,0 C 56 % 51 % 1019,5 hPa 0,0 mm 6,3 km/h (2 Bft) N 360 8,6 C 19,0 C 7,4 km/h (2 Bft)
23/09/2021 11:55 19,0 C 18,8 C 56 % 51 % 1019,5 hPa 0,0 mm 6,0 km/h (2 Bft) N 360 8,4 C 18,8 C 7,6 km/h (2 Bft)
23/09/2021 11:50 19,0 C 18,7 C 56 % 52 % 1019,4 hPa 0,0 mm 5,3 km/h (1 Bft) SE 135 8,6 C 18,7 C 9,3 km/h (2 Bft)
23/09/2021 11:45 19,0 C 18,5 C 56 % 52 % 1019,4 hPa 0,0 mm 5,0 km/h (1 Bft) N 360 8,5 C 18,5 C 5,6 km/h (1 Bft)
23/09/2021 11:40 19,0 C 18,2 C 57 % 53 % 1019,4 hPa 0,0 mm 5,5 km/h (1 Bft) O-NO 292 8,5 C 18,2 C 5,3 km/h (1 Bft)
23/09/2021 11:35 18,9 C 17,9 C 57 % 53 % 1019,4 hPa 0,0 mm 5,6 km/h (1 Bft) N-NO 337 8,2 C 17,9 C 9,8 km/h (2 Bft)
23/09/2021 11:30 19,0 C 17,8 C 57 % 53 % 1019,4 hPa 0,0 mm 5,8 km/h (2 Bft) O-NO 292 8,1 C 17,8 C 6,1 km/h (2 Bft)
23/09/2021 11:25 18,9 C 17,7 C 57 % 54 % 1019,4 hPa 0,0 mm 6,4 km/h (2 Bft) N-NO 337 8,3 C 17,7 C 8,4 km/h (2 Bft)
23/09/2021 11:20 18,9 C 17,7 C 57 % 54 % 1019,4 hPa 0,0 mm 5,8 km/h (2 Bft) N-NO 337 8,3 C 17,7 C 7,1 km/h (2 Bft)
23/09/2021 11:15 18,8 C 17,6 C 57 % 54 % 1019,4 hPa 0,0 mm 5,5 km/h (1 Bft) SE 135 8,2 C 17,6 C 4,5 km/h (1 Bft)
23/09/2021 11:10 18,8 C 17,4 C 57 % 55 % 1019,5 hPa 0,0 mm 6,3 km/h (2 Bft) E-SE 112 8,3 C 17,4 C 6,0 km/h (2 Bft)
23/09/2021 11:05 18,8 C 17,2 C 57 % 55 % 1019,5 hPa 0,0 mm 6,0 km/h (2 Bft) E-SE 112 8,1 C 17,2 C 4,7 km/h (1 Bft)
23/09/2021 11:00 18,8 C 17,1 C 57 % 57 % 1019,5 hPa 0,0 mm 4,3 km/h (1 Bft) N 360 8,5 C 17,1 C 7,1 km/h (2 Bft)
23/09/2021 10:55 18,8 C 16,8 C 57 % 58 % 1019,5 hPa 0,0 mm 4,0 km/h (1 Bft) SE 135 8,5 C 16,8 C 5,3 km/h (1 Bft)
23/09/2021 10:50 18,8 C 16,5 C 57 % 59 % 1019,6 hPa 0,0 mm 5,0 km/h (1 Bft) N-NO 337 8,5 C 16,5 C 5,8 km/h (2 Bft)
23/09/2021 10:45 18,7 C 16,2 C 57 % 60 % 1019,6 hPa 0,0 mm 3,5 km/h (1 Bft) NO 315 8,4 C 16,2 C 7,7 km/h (2 Bft)
23/09/2021 10:40 18,7 C 15,8 C 57 % 60 % 1019,6 hPa 0,0 mm 2,9 km/h (1 Bft) N 360 8,1 C 15,8 C 6,3 km/h (2 Bft)
23/09/2021 10:35 18,7 C 15,5 C 56 % 61 % 1019,6 hPa 0,0 mm 2,3 km/h (1 Bft) N 360 8,0 C 15,5 C 4,7 km/h (1 Bft)
23/09/2021 10:30 18,6 C 15,3 C 56 % 61 % 1019,3 hPa 0,0 mm 1,8 km/h (1 Bft) NO 315 7,8 C 15,3 C 2,4 km/h (1 Bft)
23/09/2021 10:25 18,6 C 15,0 C 56 % 62 % 1019,3 hPa 0,0 mm 2,6 km/h (1 Bft) O 270 7,8 C 15,0 C 1,8 km/h (1 Bft)
23/09/2021 10:20 18,6 C 14,6 C 56 % 63 % 1019,3 hPa 0,0 mm 3,1 km/h (1 Bft) NO 315 7,6 C 14,6 C 3,4 km/h (1 Bft)
23/09/2021 10:15 18,6 C 14,1 C 56 % 62 % 1019,3 hPa 0,0 mm 2,3 km/h (1 Bft) N 360 6,9 C 14,1 C 5,6 km/h (1 Bft)
23/09/2021 10:10 18,6 C 14,0 C 56 % 63 % 1019,2 hPa 0,0 mm 1,1 km/h (1 Bft) N 360 7,1 C 14,0 C 3,9 km/h (1 Bft)
23/09/2021 10:05 18,5 C 13,5 C 56 % 63 % 1019,2 hPa 0,0 mm 0,5 km/h (0 Bft) N-NO 337 6,6 C 13,5 C 0,0 km/h (0 Bft)
23/09/2021 10:00 18,5 C 13,2 C 56 % 63 % 1019,2 hPa 0,0 mm 0,2 km/h (0 Bft) N 360 6,3 C 13,2 C 0,0 km/h (0 Bft)
23/09/2021 09:55 18,5 C 12,8 C 55 % 64 % 1019,2 hPa 0,0 mm 0,3 km/h (0 Bft) N-NO 337 6,2 C 12,8 C 1,8 km/h (1 Bft)
23/09/2021 09:50 18,4 C 12,6 C 56 % 64 % 1018,7 hPa 0,0 mm 1,0 km/h (0 Bft) SE 135 6,0 C 12,6 C 0,0 km/h (0 Bft)
23/09/2021 09:45 18,4 C 12,4 C 56 % 65 % 1018,7 hPa 0,0 mm 1,3 km/h (1 Bft) N-NO 337 6,0 C 12,4 C 0,0 km/h (0 Bft)
23/09/2021 09:40 18,4 C 12,2 C 56 % 65 % 1018,7 hPa 0,0 mm 0,8 km/h (0 Bft) N 360 5,8 C 12,2 C 4,0 km/h (1 Bft)
23/09/2021 09:35 18,2 C 11,7 C 56 % 66 % 1018,7 hPa 0,0 mm 0,3 km/h (0 Bft) N 360 5,6 C 11,7 C 0,0 km/h (0 Bft)
23/09/2021 09:30 18,3 C 11,5 C 56 % 66 % 1018,4 hPa 0,0 mm 0,3 km/h (0 Bft) N 360 5,4 C 11,5 C 0,0 km/h (0 Bft)
23/09/2021 09:25 18,2 C 11,2 C 55 % 67 % 1018,4 hPa 0,0 mm 0,0 km/h (0 Bft) N-NO 337 5,3 C 11,2 C 0,0 km/h (0 Bft)
23/09/2021 09:20 18,2 C 11,0 C 55 % 67 % 1018,4 hPa 0,0 mm 0,0 km/h (0 Bft) NO 315 5,1 C 11,0 C 0,0 km/h (0 Bft)
23/09/2021 09:15 18,2 C 10,5 C 55 % 68 % 1018,4 hPa 0,0 mm 0,0 km/h (0 Bft) NO 315 4,8 C 10,5 C 0,0 km/h (0 Bft)
23/09/2021 09:10 18,2 C 10,4 C 55 % 68 % 1018,6 hPa 0,0 mm 0,0 km/h (0 Bft) NO 315 4,8 C 10,4 C 0,0 km/h (0 Bft)
23/09/2021 09:05 18,1 C 10,0 C 55 % 68 % 1018,6 hPa 0,0 mm 0,0 km/h (0 Bft) NO 315 4,4 C 10,0 C 0,0 km/h (0 Bft)
23/09/2021 09:00 18,1 C 9,9 C 55 % 68 % 1018,6 hPa 0,0 mm 0,0 km/h (0 Bft) NO 315 4,3 C 9,9 C 0,0 km/h (0 Bft)
23/09/2021 08:55 18,1 C 9,7 C 56 % 69 % 1018,6 hPa 0,0 mm 0,0 km/h (0 Bft) N 360 4,3 C 9,7 C 0,0 km/h (0 Bft)
23/09/2021 08:50 18,0 C 9,5 C 56 % 69 % 1018,3 hPa 0,0 mm 0,0 km/h (0 Bft) N 360 4,1 C 9,5 C 0,0 km/h (0 Bft)
23/09/2021 08:45 17,9 C 9,2 C 56 % 69 % 1018,3 hPa 0,0 mm 0,0 km/h (0 Bft) N 360 3,8 C 9,2 C 0,0 km/h (0 Bft)
23/09/2021 08:40 17,8 C 9,1 C 56 % 69 % 1018,3 hPa 0,0 mm 0,0 km/h (0 Bft) E-SE 112 3,7 C 9,1 C 0,0 km/h (0 Bft)
23/09/2021 08:35 17,8 C 8,9 C 56 % 70 % 1018,3 hPa 0,0 mm 0,0 km/h (0 Bft) SE 135 3,7 C 8,9 C 0,0 km/h (0 Bft)
23/09/2021 08:30 17,6 C 8,7 C 56 % 70 % 1018,2 hPa 0,0 mm 0,0 km/h (0 Bft) SE 135 3,5 C 8,7 C 0,0 km/h (0 Bft)
23/09/2021 08:25 17,4 C 8,5 C 56 % 70 % 1018,2 hPa 0,0 mm 0,0 km/h (0 Bft) SE 135 3,3 C 8,5 C 0,0 km/h (0 Bft)
23/09/2021 08:20 17,4 C 8,4 C 56 % 69 % 1018,2 hPa 0,0 mm 0,0 km/h (0 Bft) E-SE 112 3,0 C 8,4 C 0,0 km/h (0 Bft)
23/09/2021 08:15 17,2 C 8,2 C 56 % 69 % 1018,2 hPa 0,0 mm 0,0 km/h (0 Bft) E-SE 112 2,9 C 8,2 C 0,0 km/h (0 Bft)
23/09/2021 08:10 17,2 C 8,1 C 55 % 69 % 1018,3 hPa 0,0 mm 0,0 km/h (0 Bft) S-SE 157 2,8 C 8,1 C 0,0 km/h (0 Bft)
23/09/2021 08:05 17,1 C 7,9 C 55 % 69 % 1018,3 hPa 0,0 mm 0,2 km/h (0 Bft) S-SE 157 2,6 C 7,9 C 0,0 km/h (0 Bft)
23/09/2021 08:00 17,1 C 7,9 C 55 % 69 % 1018,3 hPa 0,0 mm 0,3 km/h (0 Bft) E-SE 112 2,6 C 7,9 C 0,0 km/h (0 Bft)
23/09/2021 07:55 17,1 C 7,9 C 55 % 69 % 1018,3 hPa 0,0 mm 0,3 km/h (0 Bft) S-SE 157 2,6 C 7,9 C 0,0 km/h (0 Bft)
23/09/2021 07:50 17,0 C 7,9 C 55 % 68 % 1019,1 hPa 0,0 mm 0,0 km/h (0 Bft) E-SE 112 2,4 C 7,9 C 1,6 km/h (1 Bft)
23/09/2021 07:45 17,2 C 7,8 C 55 % 68 % 1019,1 hPa 0,0 mm 0,2 km/h (0 Bft) E-SE 112 2,3 C 7,8 C 0,0 km/h (0 Bft)
23/09/2021 07:40 17,2 C 7,9 C 55 % 68 % 1019,1 hPa 0,0 mm 0,2 km/h (0 Bft) S 180 2,4 C 7,9 C 0,0 km/h (0 Bft)
23/09/2021 07:35 17,6 C 8,0 C 55 % 68 % 1019,1 hPa 0,0 mm 0,2 km/h (0 Bft) S-SE 157 2,5 C 8,0 C 2,1 km/h (1 Bft)
23/09/2021 07:30 17,7 C 7,9 C 55 % 68 % 1019,4 hPa 0,0 mm 0,2 km/h (0 Bft) S-SE 157 2,4 C 7,9 C 0,0 km/h (0 Bft)
23/09/2021 07:25 18,0 C 8,1 C 56 % 68 % 1019,4 hPa 0,0 mm 0,2 km/h (0 Bft) S-SE 157 2,6 C 8,1 C 0,0 km/h (0 Bft)
23/09/2021 07:20 18,1 C 8,1 C 56 % 68 % 1019,4 hPa 0,0 mm 0,2 km/h (0 Bft) E-SE 112 2,6 C 8,1 C 0,0 km/h (0 Bft)
23/09/2021 07:15 18,2 C 8,2 C 57 % 68 % 1019,4 hPa 0,0 mm 0,0 km/h (0 Bft) SE 135 2,7 C 8,2 C 0,0 km/h (0 Bft)
23/09/2021 07:10 18,2 C 8,2 C 57 % 68 % 1019,3 hPa 0,0 mm 0,0 km/h (0 Bft) S-SE 157 2,7 C 8,2 C 0,0 km/h (0 Bft)
23/09/2021 07:05 18,2 C 8,3 C 57 % 68 % 1019,3 hPa 0,0 mm 0,2 km/h (0 Bft) S-SE 157 2,7 C 8,3 C 0,0 km/h (0 Bft)
23/09/2021 07:00 18,2 C 8,3 C 57 % 68 % 1019,3 hPa 0,0 mm 0,2 km/h (0 Bft) S 180 2,7 C 8,3 C 0,0 km/h (0 Bft)
23/09/2021 06:55 18,2 C 8,4 C 57 % 68 % 1019,3 hPa 0,0 mm 0,2 km/h (0 Bft) S 180 2,8 C 8,4 C 2,1 km/h (1 Bft)
23/09/2021 06:50 18,2 C 8,4 C 57 % 67 % 1019,4 hPa 0,0 mm 0,0 km/h (0 Bft) S-SE 157 2,6 C 8,4 C 0,0 km/h (0 Bft)
23/09/2021 06:45 18,2 C 8,5 C 57 % 67 % 1019,4 hPa 0,0 mm 0,0 km/h (0 Bft) SE 135 2,7 C 8,5 C 0,0 km/h (0 Bft)
23/09/2021 06:40 18,2 C 8,6 C 57 % 67 % 1019,4 hPa 0,0 mm 0,6 km/h (0 Bft) E-SE 112 2,8 C 8,6 C 0,0 km/h (0 Bft)
23/09/2021 06:35 18,2 C 8,6 C 57 % 66 % 1019,4 hPa 0,0 mm 1,0 km/h (0 Bft) E-SE 112 2,6 C 8,6 C 1,9 km/h (1 Bft)
23/09/2021 06:30 18,2 C 8,7 C 57 % 66 % 1019,8 hPa 0,0 mm 0,5 km/h (0 Bft) E-SE 112 2,7 C 8,7 C 2,1 km/h (1 Bft)
23/09/2021 06:25 18,2 C 8,8 C 57 % 66 % 1019,8 hPa 0,0 mm 0,6 km/h (0 Bft) E-SE 112 2,8 C 8,8 C 3,4 km/h (1 Bft)
23/09/2021 06:20 18,2 C 8,8 C 57 % 65 % 1019,8 hPa 0,0 mm 0,5 km/h (0 Bft) E-SE 112 2,6 C 8,8 C 0,0 km/h (0 Bft)
23/09/2021 06:15 18,3 C 8,9 C 57 % 65 % 1019,8 hPa 0,0 mm 0,0 km/h (0 Bft) E-SE 112 2,7 C 8,9 C 0,0 km/h (0 Bft)
23/09/2021 06:10 18,3 C 9,0 C 57 % 65 % 1020,0 hPa 0,0 mm 0,0 km/h (0 Bft) E-SE 112 2,8 C 9,0 C 0,0 km/h (0 Bft)
23/09/2021 06:05 18,2 C 9,1 C 57 % 65 % 1020,0 hPa 0,0 mm 0,0 km/h (0 Bft) E-SE 112 2,9 C 9,1 C 0,0 km/h (0 Bft)
23/09/2021 06:00 18,3 C 9,2 C 57 % 64 % 1020,0 hPa 0,0 mm 0,0 km/h (0 Bft) E-SE 112 2,8 C 9,2 C 0,0 km/h (0 Bft)
23/09/2021 05:55 18,3 C 9,4 C 57 % 64 % 1020,0 hPa 0,0 mm 0,2 km/h (0 Bft) E-SE 112 2,9 C 9,4 C 0,0 km/h (0 Bft)
23/09/2021 05:50 18,3 C 9,5 C 57 % 64 % 1020,1 hPa 0,0 mm 0,2 km/h (0 Bft) N 360 3,0 C 9,5 C 0,0 km/h (0 Bft)
23/09/2021 05:45 18,2 C 9,7 C 57 % 64 % 1020,1 hPa 0,0 mm 0,3 km/h (0 Bft) SE 135 3,2 C 9,7 C 0,0 km/h (0 Bft)
23/09/2021 05:40 18,2 C 9,9 C 57 % 64 % 1020,1 hPa 0,0 mm 1,6 km/h (1 Bft) N 360 3,4 C 9,9 C 0,0 km/h (0 Bft)
23/09/2021 05:35 18,3 C 10,0 C 57 % 64 % 1020,1 hPa 0,0 mm 4,5 km/h (1 Bft) E-SE 112 3,5 C 10,0 C 2,6 km/h (1 Bft)
23/09/2021 05:30 18,3 C 10,1 C 57 % 64 % 1019,9 hPa 0,0 mm 4,8 km/h (1 Bft) SE 135 3,6 C 10,1 C 3,4 km/h (1 Bft)
23/09/2021 05:25 18,3 C 10,3 C 57 % 64 % 1019,9 hPa 0,0 mm 3,5 km/h (1 Bft) SE 135 3,8 C 10,3 C 4,8 km/h (1 Bft)
23/09/2021 05:20 18,3 C 10,4 C 57 % 64 % 1019,9 hPa 0,0 mm 3,2 km/h (1 Bft) E-SE 112 3,9 C 10,4 C 6,4 km/h (2 Bft)
23/09/2021 05:15 18,2 C 10,5 C 57 % 64 % 1019,9 hPa 0,0 mm 2,7 km/h (1 Bft) E-SE 112 4,0 C 10,5 C 3,7 km/h (1 Bft)
23/09/2021 05:08 18,2 C 10,7 C 57 % 64 % 1019,9 hPa 0,0 mm 2,9 km/h (1 Bft) S-SO 202 4,2 C 10,7 C 3,5 km/h (1 Bft)
23/09/2021 05:04 18,2 C 10,7 C 57 % 64 % 1019,9 hPa 0,0 mm 2,9 km/h (1 Bft) S-SO 202 4,2 C 10,7 C 3,5 km/h (1 Bft)
23/09/2021 04:59 18,2 C 10,7 C 57 % 64 % 1019,9 hPa 0,0 mm 3,4 km/h (1 Bft) S-SE 157 4,2 C 10,7 C 2,7 km/h (1 Bft)
23/09/2021 04:54 18,2 C 10,8 C 57 % 64 % 1019,9 hPa 0,0 mm 4,5 km/h (1 Bft) S 180 4,3 C 10,8 C 4,8 km/h (1 Bft)
23/09/2021 04:49 18,2 C 10,8 C 57 % 64 % 1019,9 hPa 0,0 mm 5,0 km/h (1 Bft) SE 135 4,3 C 10,8 C 6,3 km/h (2 Bft)
23/09/2021 04:44 18,2 C 10,8 C 57 % 64 % 1019,9 hPa 0,0 mm 6,1 km/h (2 Bft) S-SE 157 4,3 C 10,8 C 5,0 km/h (1 Bft)
23/09/2021 04:39 18,2 C 10,8 C 57 % 64 % 1019,9 hPa 0,0 mm 6,6 km/h (2 Bft) S 180 4,3 C 10,8 C 6,1 km/h (2 Bft)
23/09/2021 04:34 18,2 C 10,8 C 57 % 64 % 1019,9 hPa 0,0 mm 5,5 km/h (1 Bft) S-SE 157 4,3 C 10,8 C 7,2 km/h (2 Bft)
23/09/2021 04:29 18,2 C 10,8 C 57 % 64 % 1020,1 hPa 0,0 mm 5,3 km/h (1 Bft) S-SE 157 4,3 C 10,8 C 6,1 km/h (2 Bft)
23/09/2021 04:24 18,2 C 10,8 C 57 % 64 % 1020,1 hPa 0,0 mm 5,1 km/h (1 Bft) S-SE 157 4,3 C 10,8 C 6,9 km/h (2 Bft)
23/09/2021 04:19 18,2 C 10,8 C 57 % 64 % 1020,1 hPa 0,0 mm 5,1 km/h (1 Bft) S-SE 157 4,3 C 10,8 C 8,0 km/h (2 Bft)
23/09/2021 04:14 18,2 C 10,8 C 57 % 64 % 1020,1 hPa 0,0 mm 5,5 km/h (1 Bft) S-SE 157 4,3 C 10,8 C 7,2 km/h (2 Bft)
23/09/2021 04:09 18,2 C 10,8 C 57 % 64 % 1019,8 hPa 0,0 mm 5,8 km/h (2 Bft) S 180 4,3 C 10,8 C 8,7 km/h (2 Bft)
23/09/2021 04:04 18,2 C 10,9 C 57 % 64 % 1019,8 hPa 0,0 mm 4,7 km/h (1 Bft) N 360 4,4 C 10,9 C 5,6 km/h (1 Bft)
23/09/2021 03:59 18,2 C 10,9 C 57 % 63 % 1019,8 hPa 0,0 mm 5,0 km/h (1 Bft) S-SE 157 4,1 C 10,9 C 4,2 km/h (1 Bft)
23/09/2021 03:54 18,2 C 11,0 C 57 % 63 % 1019,8 hPa 0,0 mm 5,1 km/h (1 Bft) SE 135 4,2 C 11,0 C 6,8 km/h (2 Bft)
23/09/2021 03:49 18,2 C 11,0 C 57 % 63 % 1020,2 hPa 0,0 mm 4,5 km/h (1 Bft) S-SE 157 4,2 C 11,0 C 6,9 km/h (2 Bft)
23/09/2021 03:44 18,2 C 11,0 C 57 % 63 % 1020,2 hPa 0,0 mm 4,2 km/h (1 Bft) S 180 4,2 C 11,0 C 7,2 km/h (2 Bft)
23/09/2021 03:39 18,3 C 11,0 C 57 % 63 % 1020,2 hPa 0,0 mm 4,2 km/h (1 Bft) SE 135 4,2 C 11,0 C 2,7 km/h (1 Bft)
23/09/2021 03:34 18,2 C 11,1 C 57 % 63 % 1020,2 hPa 0,0 mm 5,5 km/h (1 Bft) S 180 4,3 C 11,1 C 4,7 km/h (1 Bft)
23/09/2021 03:29 18,3 C 11,1 C 57 % 63 % 1020,3 hPa 0,0 mm 6,6 km/h (2 Bft) S-SE 157 4,3 C 11,1 C 11,3 km/h (2 Bft)
23/09/2021 03:24 18,3 C 11,1 C 57 % 63 % 1020,3 hPa 0,0 mm 7,1 km/h (2 Bft) E-SE 112 4,3 C 11,1 C 8,5 km/h (2 Bft)
23/09/2021 03:19 18,3 C 11,1 C 57 % 63 % 1020,3 hPa 0,0 mm 6,1 km/h (2 Bft) S-SE 157 4,3 C 11,1 C 6,9 km/h (2 Bft)
23/09/2021 03:14 18,3 C 11,2 C 57 % 63 % 1020,3 hPa 0,0 mm 5,0 km/h (1 Bft) S 180 4,4 C 11,2 C 11,4 km/h (2 Bft)
23/09/2021 03:09 18,3 C 11,3 C 56 % 63 % 1020,6 hPa 0,0 mm 4,7 km/h (1 Bft) S-SE 157 4,5 C 11,3 C 0,0 km/h (0 Bft)
23/09/2021 03:04 18,3 C 11,3 C 56 % 63 % 1020,6 hPa 0,0 mm 6,1 km/h (2 Bft) S-SE 157 4,5 C 11,3 C 6,8 km/h (2 Bft)
23/09/2021 02:59 18,2 C 11,3 C 57 % 63 % 1020,6 hPa 0,0 mm 6,3 km/h (2 Bft) E-SE 112 4,5 C 11,3 C 6,3 km/h (2 Bft)
23/09/2021 02:54 18,2 C 11,3 C 56 % 63 % 1020,6 hPa 0,0 mm 7,2 km/h (2 Bft) S-SE 157 4,5 C 11,3 C 8,2 km/h (2 Bft)
23/09/2021 02:49 18,2 C 11,3 C 57 % 63 % 1020,8 hPa 0,0 mm 7,4 km/h (2 Bft) S 180 4,5 C 11,3 C 9,3 km/h (2 Bft)
23/09/2021 02:44 18,2 C 11,4 C 56 % 62 % 1020,8 hPa 0,0 mm 6,6 km/h (2 Bft) S 180 4,4 C 11,4 C 8,2 km/h (2 Bft)
23/09/2021 02:39 18,4 C 11,4 C 56 % 62 % 1020,8 hPa 0,0 mm 6,1 km/h (2 Bft) S 180 4,4 C 11,4 C 7,2 km/h (2 Bft)
23/09/2021 02:34 18,4 C 11,5 C 56 % 62 % 1020,8 hPa 0,0 mm 7,2 km/h (2 Bft) S-SE 157 4,5 C 11,5 C 9,7 km/h (2 Bft)
23/09/2021 02:29 18,4 C 11,5 C 56 % 62 % 1020,6 hPa 0,0 mm 6,9 km/h (2 Bft) S 180 4,5 C 11,5 C 6,3 km/h (2 Bft)
23/09/2021 02:24 18,4 C 11,5 C 56 % 62 % 1020,6 hPa 0,0 mm 5,5 km/h (1 Bft) S-SE 157 4,5 C 11,5 C 8,9 km/h (2 Bft)
23/09/2021 02:19 18,4 C 11,6 C 56 % 62 % 1020,6 hPa 0,0 mm 5,1 km/h (1 Bft) S-SE 157 4,6 C 11,6 C 5,3 km/h (1 Bft)
23/09/2021 02:14 18,4 C 11,6 C 56 % 62 % 1020,6 hPa 0,0 mm 6,0 km/h (2 Bft) S-SE 157 4,6 C 11,6 C 3,5 km/h (1 Bft)
23/09/2021 02:09 18,4 C 11,6 C 56 % 62 % 1020,9 hPa 0,0 mm 6,6 km/h (2 Bft) S-SE 157 4,6 C 11,6 C 6,1 km/h (2 Bft)
23/09/2021 02:04 18,4 C 11,7 C 56 % 61 % 1020,9 hPa 0,0 mm 6,3 km/h (2 Bft) E-SE 112 4,4 C 11,7 C 10,3 km/h (2 Bft)
23/09/2021 01:59 18,4 C 11,8 C 56 % 62 % 1020,9 hPa 0,0 mm 5,3 km/h (1 Bft) S 180 4,8 C 11,8 C 9,7 km/h (2 Bft)
23/09/2021 01:54 18,4 C 11,8 C 56 % 61 % 1020,9 hPa 0,0 mm 5,1 km/h (1 Bft) S-SE 157 4,5 C 11,8 C 8,7 km/h (2 Bft)
23/09/2021 01:49 18,4 C 11,8 C 56 % 61 % 1021,1 hPa 0,0 mm 6,0 km/h (2 Bft) S 180 4,5 C 11,8 C 7,4 km/h (2 Bft)
23/09/2021 01:44 18,4 C 11,8 C 56 % 62 % 1021,1 hPa 0,0 mm 6,3 km/h (2 Bft) E-SE 112 4,8 C 11,8 C 9,2 km/h (2 Bft)
23/09/2021 01:39 18,5 C 11,8 C 56 % 61 % 1021,1 hPa 0,0 mm 6,8 km/h (2 Bft) S-SE 157 4,5 C 11,8 C 7,4 km/h (2 Bft)
23/09/2021 01:34 18,5 C 11,8 C 56 % 61 % 1021,1 hPa 0,0 mm 8,7 km/h (2 Bft) S-SE 157 4,5 C 11,8 C 7,2 km/h (2 Bft)
23/09/2021 01:29 18,5 C 11,8 C 56 % 61 % 1021,7 hPa 0,0 mm 9,5 km/h (2 Bft) S 180 4,5 C 11,8 C 12,1 km/h (2 Bft)
23/09/2021 01:24 18,5 C 11,8 C 56 % 61 % 1021,7 hPa 0,0 mm 8,7 km/h (2 Bft) S-SE 157 4,5 C 11,8 C 9,0 km/h (2 Bft)
23/09/2021 01:19 18,5 C 11,8 C 56 % 61 % 1021,7 hPa 0,0 mm 7,2 km/h (2 Bft) S-SE 157 4,5 C 11,8 C 12,1 km/h (2 Bft)
23/09/2021 01:14 18,5 C 11,9 C 56 % 61 % 1021,7 hPa 0,0 mm 6,1 km/h (2 Bft) S-SE 157 4,6 C 11,9 C 10,5 km/h (2 Bft)
23/09/2021 01:09 18,6 C 12,0 C 56 % 61 % 1021,4 hPa 0,0 mm 6,1 km/h (2 Bft) SE 135 4,7 C 12,0 C 7,2 km/h (2 Bft)
23/09/2021 01:04 18,6 C 12,2 C 56 % 61 % 1021,4 hPa 0,0 mm 6,6 km/h (2 Bft) S-SE 157 4,9 C 12,2 C 6,8 km/h (2 Bft)
23/09/2021 00:59 18,6 C 12,2 C 56 % 61 % 1021,4 hPa 0,0 mm 7,2 km/h (2 Bft) S-SE 157 4,9 C 12,2 C 13,2 km/h (3 Bft)
23/09/2021 00:54 18,6 C 12,2 C 56 % 61 % 1021,4 hPa 0,0 mm 6,9 km/h (2 Bft) S-SE 157 4,9 C 12,2 C 7,2 km/h (2 Bft)
23/09/2021 00:49 18,6 C 12,2 C 56 % 61 % 1021,5 hPa 0,0 mm 6,9 km/h (2 Bft) S-SE 157 4,9 C 12,2 C 10,6 km/h (2 Bft)
23/09/2021 00:44 18,7 C 12,1 C 56 % 60 % 1021,5 hPa 0,0 mm 6,4 km/h (2 Bft) S 180 4,6 C 12,1 C 5,1 km/h (1 Bft)
23/09/2021 00:39 18,7 C 12,3 C 56 % 60 % 1021,5 hPa 0,0 mm 6,3 km/h (2 Bft) S 180 4,8 C 12,3 C 6,6 km/h (2 Bft)
23/09/2021 00:34 18,7 C 12,3 C 56 % 60 % 1021,5 hPa 0,0 mm 5,8 km/h (2 Bft) SE 135 4,8 C 12,3 C 5,0 km/h (1 Bft)
23/09/2021 00:29 18,7 C 12,3 C 56 % 60 % 1021,6 hPa 0,0 mm 6,3 km/h (2 Bft) SE 135 4,8 C 12,3 C 6,8 km/h (2 Bft)
23/09/2021 00:24 18,7 C 12,4 C 56 % 59 % 1021,6 hPa 0,0 mm 6,1 km/h (2 Bft) SE 135 4,6 C 12,4 C 7,6 km/h (2 Bft)
23/09/2021 00:19 18,7 C 12,4 C 56 % 59 % 1021,6 hPa 0,0 mm 5,6 km/h (1 Bft) S-SE 157 4,6 C 12,4 C 8,4 km/h (2 Bft)
23/09/2021 00:14 18,7 C 12,5 C 56 % 59 % 1021,6 hPa 0,0 mm 5,6 km/h (1 Bft) S-SE 157 4,7 C 12,5 C 9,2 km/h (2 Bft)
23/09/2021 00:09 18,7 C 12,6 C 56 % 59 % 1021,8 hPa 0,0 mm 5,3 km/h (1 Bft) S 180 4,8 C 12,6 C 8,5 km/h (2 Bft)
23/09/2021 00:04 18,8 C 12,7 C 56 % 59 % 1021,8 hPa 0,0 mm 4,8 km/h (1 Bft) S 180 4,9 C 12,7 C 7,4 km/h (2 Bft)
_ Min-Heure 07:50 07:45 09:55 16:00 18:10 - 23:25 - - 07:45 07:45 23:30
Minimum _ 17,0 C 7,8 C 55 % 43 % 1016,9 hPa - 0,0 km/h (0 Bft) - - 2,3 C 7,8 C 0,0 km/h (0 Bft)
_ Max-Heure 19:35 16:50 22:00 08:35 00:09 23:30 01:29 - - 16:50 16:50 13:45
Maximum _ 19,8 C 24,1 C 60 % 70 % 1021,8 hPa 0,0 mm 9,5 km/h
S (2 Bft)
- - 11,4 C 24,1 C 18,3 km/h
N-NO (3 Bft)
Moyenne _ 18,8 C 15,8 C 57 % 57 % 1018,8 hPa #0,0 mm 3,7 km/h (1 Bft) N - 7,0 C 15,8 C 4,6 km/h (1 Bft)
Station mto TE 857